Cross City, FL

5:52 AM EDT on August 28, 2016 (GMT -0400)
Cross City

Weather History for KCTY - July, 2013

Change the Weather History Date:

Monday, July 8, 2013

  Actual Average Record
Temperature  
Mean Temperature 83 °F 81 °F  
Max Temperature 93 °F 91 °F 97 °F (2016)
Min Temperature 73 °F 71 °F 66 °F (2010)
Degree Days  
Heating Degree Days 0 0  
Month to date heating degree days 0 0  
Since 1 June heating degree days 0 0  
Since 1 July heating degree days 0 0  
Cooling Degree Days 18 16  
Month to date cooling degree days 123 128  
Year to date cooling degree days 1101 1054  
Since 1 June cooling degree days 566 575  
Growing Degree Days 33 (Base 50)    
Moisture  
Dew Point 73 °F    
Average Humidity 76    
Maximum Humidity 100    
Minimum Humidity 49    
Precipitation  
Precipitation 0.07 in 0.16 in 0.83 in (2008)
Month to date precipitation 9.06 1.30  
Year to date precipitation 30.94 23.56  
Sea Level Pressure  
Sea Level Pressure 30.14 in    
Wind  
Wind Speed 3 mph (ENE)    
Max Wind Speed 12 mph    
Max Gust Speed 15 mph    
T = Trace of Precipitation, MM = Missing Value Source: NWS Daily Summary

Daily Weather History Graph

Daily Weather History Graph

Search for Another Location

Airport or City:

Trip Planner

Search our weather history database for the weather conditions in past years. The results will help you decide how hot, cold, wet, or windy it might be!

Date:

Astronomy

Jul. 08, 2013 Rise Set
Actual Time 6:38 AM EDT 8:36 PM EDT
Civil Twilight 6:11 AM EDT 9:02 PM EDT
Nautical Twilight 5:39 AM EDT 9:35 PM EDT
Astronomical Twilight 5:04 AM EDT 10:10 PM EDT
Moon 7:00 AM EDT (7/8) 8:46 PM EDT (7/8)
Length of Visible Light 14h 51m
Length of Day
13h 57m
New Moon, 0% of the Moon is Illuminated
Jul 8
New Moon
Jul 15
First Quarter
Jul 22
Full
Jul 29
Last Quarter
Aug 6
New

Hourly Weather History & Observations

Time (EDT) Temp. Heat Index Dew Point Humidity Pressure Visibility Wind Dir Wind Speed Gust Speed Precip Events Conditions
12:53 AM 75.0 °F - 73.0 °F 94% 30.15 in - Calm Calm - N/A   Unknown
1:53 AM 75.0 °F - 73.0 °F 94% 30.14 in - Calm Calm - N/A   Unknown
2:53 AM 73.9 °F - 73.0 °F 97% 30.13 in - Calm Calm - N/A   Unknown
3:53 AM 73.9 °F - 72.0 °F 93% 30.12 in - Calm Calm - 0.02 in   Unknown
4:53 AM 73.9 °F - 72.0 °F 93% 30.12 in - Calm Calm - 0.01 in   Unknown
5:53 AM 73.0 °F - 72.0 °F 96% 30.12 in - Calm Calm - 0.02 in   Unknown
6:53 AM 73.0 °F - 71.1 °F 93% 30.14 in - NNE 4.6 mph - N/A   Unknown
7:53 AM 75.9 °F - 73.0 °F 91% 30.16 in - Calm Calm - 0.01 in   Unknown
8:53 AM 79.0 °F - 75.0 °F 88% 30.17 in - Variable 4.6 mph - N/A   Unknown
9:53 AM 82.9 °F 90.8 °F 75.9 °F 79% 30.17 in - ESE 5.8 mph - N/A   Unknown
10:53 AM 86.0 °F 95.1 °F 75.0 °F 70% 30.18 in - Variable 3.5 mph - N/A   Unknown
11:53 AM 87.1 °F 94.5 °F 73.0 °F 63% 30.17 in - Variable 3.5 mph - N/A   Unknown
12:53 PM 89.1 °F 97.0 °F 73.0 °F 59% 30.17 in - ESE 6.9 mph - N/A   Unknown
1:53 PM 90.0 °F 97.9 °F 73.0 °F 57% 30.15 in - Variable 3.5 mph - N/A   Unknown
2:53 PM 90.0 °F 96.4 °F 71.1 °F 54% 30.13 in - Variable 3.5 mph - N/A   Unknown
3:53 PM 91.0 °F 98.2 °F 72.0 °F 53% 30.12 in - ENE 5.8 mph - N/A   Unknown
4:53 PM 91.9 °F 98.4 °F 71.1 °F 50% 30.10 in - Variable 3.5 mph - N/A   Unknown
5:53 PM 91.9 °F 97.4 °F 70.0 °F 48% 30.09 in - SSE 4.6 mph - N/A   Unknown
6:53 PM 90.0 °F 95.4 °F 70.0 °F 52% 30.09 in - Calm Calm - N/A   Unknown
7:53 PM 84.0 °F 92.6 °F 75.9 °F 76% 30.11 in - NW 6.9 mph - N/A   Unknown
8:53 PM 82.9 °F 90.8 °F 75.9 °F 79% 30.14 in - SW 3.5 mph - N/A   Unknown
9:53 PM 82.0 °F 89.4 °F 75.9 °F 82% 30.15 in - North 4.6 mph - N/A   Unknown
10:53 PM 80.1 °F 85.8 °F 77.0 °F 90% 30.17 in - Calm Calm - N/A   Unknown
11:53 PM 80.1 °F 85.4 °F 75.9 °F 87% 30.17 in - Calm Calm - N/A   Unknown